Location: Moscow
(55.7500°N, 37.5830°E)
Time: 18:12:37
(UTC+03:00)

Vanguard 1 - Pass Details

Date: 02 December 2021
Orbit: 652 x 3830 km, 34.2° (Epoch: 22 January)

Event Time Altitude Azimuth Distance (km) Brightness Sun altitude
Rises 02:59:16 0° 246° (WSW) 7,907 - -45.1°
Reaches altitude 10° 03:05:17 10° 239° (WSW) 6,935 - -44.4°
Exits shadow 03:24:33 37° 184° (S) 4,482 13.0 -42.0°
Maximum altitude 03:24:39 37° 183° (S) 4,476 13.0 -42.0°
Drops below altitude 10° 03:38:57 10° 124° (SE) 5,176 14.0 -40.1°
Sets 03:42:38 0° 116° (ESE) 5,793 14.5 -39.7°
